Погода в Белогорске

Погода в Белогорске : погода сейчас, прогноз погоды и архив. Всё, что Вы хотите узнать о погоде в Белогорске!

Хотите узнать прогноз погоды в Белогорске? Тогда Вам сюда: Погода в Белогорске

Поиск расширенной информации на нашем сайте:

Другие новости

Новости СМИ2

Главная страница сайта

Новости сайта

02.10.2013

Напоминаем, что на нашем новом сайте вы можете получить высокодетализированные прогнозы погоды по пунктам России, СНГ и мира (включающие важные для авиации метеовеличины, такие как направление и скорость ветра, видимость, явления погоды, количество и форма облачности, нижняя и верхняя граница облачности), а также ознакомиться с разнообразными материалами по авиационной метеорологии и подборкой полезных ссылок на эту тему.

Сайт Метеоцентр.Азия посвящён разработке технологий оптимизации авиаметеорологического обслуживания, включая проектирование и перспективное создание нескольких автоматизированных авиаметеорологических систем:
- система выпуска высокодетальных прогностических карт явлений погоды для нижнего воздушного пространства по России и ближнему зарубежью;
- система верификации прогнозов TAF (выпускаемых синоптиками официальных АМСГ РФ и ближнего зарубежья) и AUTOTAF (выпускаемых сайтом Метеоцентр.Азия) - выявление ошибок, онлайн-сопоставление с фактической погодой METAR, автоматическое внесение коррективов в прогнозы при резком отклонении фактической погоды от прогноза, подсчёт оправдываемости прогнозов по элементам и в целом;
- система обработки, анализа и отображения авиаметеорологической информации для применения провайдерами метеорологической информации.


Погода в Белогорске - сегодня

Время (UTC), дата Ветер
(°,м/с) 
Видим.   Явления Облачность Т
(°С)
Тd
(°С)
f(%) Тe
(°С)
Pmin
(гПа)
dP
(гПа)
Po
(мм)
O2
(г/м3)
Тmin Tmax R s Состояние
почвы
12 26.04.17 340 (С) 20000 м    8/0 средняя, верхняя 
[Ac trans|Ci fib]
+6.1 -1.9 56 +7  1006.8  0.4  739  291    +14.7       
15 26.04.17 280 (З) 20000 м    ясно 
+4.7 -3.8 54 +6  1006.1  -0.8  738  293           
18 26.04.17 300 (СЗ) 20000 м    8/0 верхняя 
[Ci fib]
+2.9 -3.9 61 +4  1004.6  -1.5  737  294           
21 26.04.17 320 (СЗ) 20000 м    10/5 1000 м средняя, верхняя 
[Sc|Ac lent|Ci fib]
+3.4 -3.6 60 +3  1004.1  -0.5  737  294           
00 27.04.17 350 (С) 20000 м    4/0 верхняя 
[Ci fib]
+9.9 -2.6 41 +9  1003  -0.6  736  287  +2.2        влажная 
03 27.04.17 360 (С) 4{10}  20000 м    6/6 600 м 
[Cu med, cong]
+13.7 -3.7 30 +13  1001.7  -1  736  283           
06 27.04.17 360 (С) 4-10{10}  20000 м    8/6 600 м кучево-дожд., средняя 
[Cb cap|Ac trans]
+13.4 -4.8 28 +13  1000.1  -1.5  734  283           
09 27.04.17 340 (С) 4{10}  20000 м    10/8 1000 м средняя, верхняя 
[Sc diur, vesp|Ac trans|Ci fib]
+11.3 -3.6 35 +11  1000.1  -0.3  734  284           
12 27.04.17 300 (СЗ) 20000 м    6/0 верхняя 
[Ci fib]
+6.5 -2.1 54 +7  1000.9  0.5  735  289    +14.6       
15 27.04.17 300 (СЗ) 20000 м    ясно 
+3.7 -5.4 51 +3  1000.3  -0.8  734  292           
18 27.04.17 280 (З) 20000 м    ясно 
+1.6 -5.3 60 +1  999.6  -0.9  733  294           
21 27.04.17 280 (З) 20000 м    9/9 600 м 
[Sc]
+2.1 -4.5 62 +1  998.9  -0.6  733  293           
00 28.04.17 340 (С) 20000 м    9/9 600 м 
[Sc]
+9.2 -4.4 38 +10  997.3  -1  732  286  +0.4        сухая 
03 28.04.17 300 (СЗ) 20000 м    10/3 1000 м средняя, верхняя 
[Cu hum|Ac trans|Ci fib]
+11.3 -2.1 39 +11  996.8  -0.3  732  283           
06 28.04.17 330 (СЗ) 20000 м  в посл. час ливневой дождь  10/10 600 м кучево-дожд. 
[Cb cap]
+8.1 +3.4 72 +7  997  0.1  732  286           
09 28.04.17 340 (С) 2{11}  20000 м    8/8 600 м кучево-дожд. 
[Cb cap]
+9.4 +1.5 58 +9  996.4  -0.4  731  285           
12 28.04.17 260 (З) 20000 м    3/3 600 м 
[Sc diur, vesp]
+5.9 +0.4 68 +7  996.7  731  288    +11.9  0.0     
15 28.04.17 210 (ЮЗ) 20000 м    ясно 
+3.7 -1.4 69 +3  995  -1.9  730  290           
18 28.04.17 210 (ЮЗ) 20000 м    8/0 средняя, верхняя 
[Ac trans|Ci]
+4.3 -0.9 69 +4  993.7  -1.2  729  289           
21 28.04.17 150 (ЮВ) 4000 м  слаб. дождь  10/10 600 м 
[Ns]
+3.8 +2 88 +5  991.8  -1.9  728  289           
00 29.04.17 140 (ЮВ) 20000 м  в посл. час дождь  10/4 600 м средняя 
[Frnb|Ac As]
+4.4 +2.3 86 +3  989.3  -2.4  726  287  +2.8      влажная 
03 29.04.17 090 (В) 20000 м  {дождь}  10/8 600 м средняя 
[Sc|Ac As]
+4.6 +2.5 86 +3  990.2  727  287           
06 29.04.17 080 (В) 4000 м  слаб. ливневой дождь  10/10 600 м кучево-дожд. 
[Cb cap]
+4.8 +2.8 87 +4  992.4  2.2  728  288           
09 29.04.17 020 (С) 20000 м  в посл. час ливневой дождь  10/8 600 м средняя 
[Sc diur, vesp|Ac As]
+5.6 +3.6 87 +5  994.8  2.4  730  288           
12 29.04.17 330 (СЗ) 20000 м  {ливн. осадки}  10/8 600 м средняя 
[Sc|Ac As]
+4.7 +3.4 91 +4  997.6  2.6  732  289    +5.7     
Время (UTC), дата Ветер
(°,м/с) 
Видим.   Явления Облачность Т
(°С)
Тd
(°С)
f(%) Тe
(°С)
Pmin
(гПа)
dP
(гПа)
Po
(мм)
O2
(г/м3)
Тmin Tmax R s Состояние
почвы

Для получения пояснительной информации подведите курсор к названию столбца.

ПОГОДА в Белогорске - архив

Всё, что Вы хотите узнать о погоде в Белогорске - удобно и подробно!

Выберите нужную дату (начиная с 1 января 2015* года) и нажмите кнопку "Найти".
Будут отображены архивные сводки погоды по пункту Белогорск, начиная с указанной даты.


Отображать данные в формате CSV (для использования в таблицах Excel)


Внимание! Наш архив погоды предназначен исключительно для личного некоммерческого использования в познавательных целях. Если Вам необходимы официальные справки о состоянии погоды (для производственных, юридических, коммерческих и т.п. целей), обращайтесь в органы Росгидромета.

*Примечание: данная дата относится к архиву по метеостанциям СССР (Россия, СНГ, Балтия).
Архив по метеостанциям Зарубежной Европы и Азии (кроме Китая) хранится 10 дней, по другим регионам земного шара (Китай, Африка, Америка, Австралия, Океания) - 1 день.

Белогорск - район местоположения метеостанции


Название, широта, долгота, высота метеостанции:
Белогорск 50.9°ш. 128.5°д. 178 м над ур. моря [Российская Федерация]

Дополнительная информация

В oтличие oт бoльшинства пoгoдных сайтoв мы публикуем пoдрoбную метеoинфoрмацию в детальнoм прoфессиoнальнoм фoрмате.

Характеристики температуры и влажнoсти вoздуха измеряются на высoте 2 м в тени вдали oт зданий и деревьев.
Скoрoсть ветра измеряется на высoте 10 м (на урoвне рoста челoвека скoрoсть ветра ниже в 1.5-2 раза). Если метеoстанция нахoдится в гoрoде или в лесу, тo скoрoсть ветра занижена на 2-4 м/с пo сравнению с oткрытым местoм. Скoрoсть ветра над акватoриями крупных рек и oзёр, а также на вершинах хoлмoв на 2-5 м/с выше, чем в oбычных услoвиях.
Атмoсфернoе давление в разных тoчках местнoсти мoжет значительнo oтличаться oт давления на метеoстанции, в зависимoсти oт услoвий рельефа (при пoдъёме на 10 м давление пoнижается примернo на 1 мм рт.ст.).